STAR ONE C4 (40733 NORAD) Tracking and Keplerian Element Data

This shows tracking and keplerian element data for the satellite.

Feedback or suggestion? Click here.




ElementValue
Catalog40733
NameSTAR ONE C4
Epoch Orbit2265
Epoch Day261.85414837
Epoch Year2021
RAAN353.2675
Inclination0.053
Eccentricity0.000107
Argument of Perigee171.6463
Mean Anonmoly70.5645
Mean Motion1.00271286
Decay Rate-2.89E-06
L11 40733U 15034B 21261.85414837 -.00000289 00000-0 00000-0 0 9992
L22 40733 0.0530 353.2675 0001070 171.6463 70.5645 1.00271286 22653

Live tracking and technical data element details for STAR ONE C4 (NORAD 40733). STAR ONE C4 can be tracked NOW for your location showing map with azimuth and elevation plus other details from your city location.

Track the satellite on the map from your city or location and see movement details for azimuth, elevation, latitude, longitude, range, height, and movement on the map or in text.







IsCatalogInMostPopularTable: catalog: 40733, numindb: 697
Update: records affected: 1



GetName: 40733 STAR ONE C4

Hit Count: updated at: Fri, 24 Sep 2021 18:35:01 GMT